Regional Weather Roundup
Issued by NWS Green Bay, WI

Home | Current Version | Previous Version | Graphics & Text | Print | Product List | Glossary Off
Versions: 1 2 3 4 5 6 7 8 9 10 11 12 13 14 15 16 17 18 19 20 21 22 23 24 25 26 27 28 29 30 31 32 33 34 35 36 37 38 39 40 41 42 43 44 45 46 47 48 49 50

000
ASUS43 KGRB 070911
RWRGRB

NORTH-CENTRAL AND NORTHEAST WISCONSIN REGIONAL WEATHER ROUNDUP
NATIONAL WEATHER SERVICE GREEN BAY WI
300 AM CST SUN FEB 07 2016

WIZ005-009-010>012-018-019-071000-
NORTH CENTRAL WISCONSIN

CITY           SKY/WX    TMP DP  RH WIND       PRES   REMARKS
IRONWOOD       CLOUDY    30  27  86 S12G21    29.58F
MANITOWISH WTR CLOUDY    28  27  94 S8        29.62F
ARBOR VITAE    CLOUDY    31  29  90 S12       29.63F
EAGLE RIVER    CLOUDY    28  25  87 SW8       29.64F
LAND O LAKES   CLOUDY    28  26  91 S12       29.63F
RHINELANDER    CLOUDY    29  25  85 S13       29.66F
PHILLIPS       CLOUDY    29  27  91 SW10      29.65S
ANTIGO         LGT SNOW  27  26  94 S12       29.71F
TOMAHAWK       CLOUDY    28  26  91 S3        29.67F
MERRILL        CLOUDY    29  27  92 S8        29.69F
$$

WIZ013-073-071000-
NORTHEAST WISCONSIN

CITY           SKY/WX    TMP DP  RH WIND       PRES   REMARKS
IRON MOUNTAIN  CLOUDY    29  25  85 S12       29.70F FOG
MARINETTE      CLOUDY    30  27  86 SW15      29.78F
OCONTO         CLOUDY    30  28  92 S6        29.79F
$$

WIZ017-030-035>037-045-071000-
CENTRAL WISCONSIN

CITY           SKY/WX    TMP DP  RH WIND       PRES   REMARKS
MEDFORD        CLOUDY    30  28  94 SW9       29.69R
WAUSAU         CLOUDY    31  27  85 S10       29.69F
MOSINEE        CLOUDY    30  30 100 S14       29.71F
MARSHFIELD     MOCLDY    31  25  78 S14       29.68F
WISC RAPIDS    CLOUDY    32  26  78 S8        29.74F
STEVENS POINT  CLOUDY    29  27  89 S10       29.74F
WAUPACA        CLOUDY    34  29  82 S9        29.76F
SHAWANO        CLOUDY    32  28  83 SW5       29.78F
CLINTONVILLE   CLOUDY    32  27  80 S7        29.78F
WAUTOMA        CLOUDY    33  30  89 S8        29.77F
$$

WIZ038-039-048-051-071000-
FOX VALLEY

CITY           SKY/WX    TMP DP  RH WIND       PRES   REMARKS
NWS GREEN BAY  CLOUDY    34  28  79 S12       29.79F
APPLETON       CLOUDY    32  28  86 S15G21    29.77F
OSHKOSH        CLOUDY    34  28  79 S20       29.80F
FOND DU LAC    CLOUDY    36  29  75 SW16G24   29.82F
$$

WIZ022-050-052-071000-
EAST CENTRAL WISCONSIN

CITY           SKY/WX    TMP DP  RH WIND       PRES   REMARKS
EPHRAIM        CLOUDY    30  25  80 S8        29.79F
STURGEON BAY   CLOUDY    30  25  80 S12       29.82F
MANITOWOC      CLOUDY    33  29  85 S12       29.84F
SHEBOYGAN      CLOUDY    34  29  82 S12       29.85F
$$

LMZ563-521-522-541>543-071000-
LAKESHORE

STATION/POSITION TIME  TEMP    WIND        PRES    VSBY  WAVE
                       AIR SEA DIR/SP/G                  HT/PER
                 (UTC) (F)     (DEG/KT/KT) (MB)    (MI)  (FT/S)
SHEBOYGAN LKSHOR 0900   34     190/ 17/ 18 1011.8F
KEWAUNEE LKSHORE 0800   32     200/ 11/ 13 1010.8F
ALGOMA MARINA    0811          230/ 14/ 17   N/A
CHAMBERS ISLAND  0800   30     170/  7/ 13 1010.5F
MENOMINEE LKSHOR 0800   30     190/ 12     1009.2F
$$



USA.gov is the U.S. government's official web portal to all federal, state and local government web resources and services.